| time (UTC) | temp F | wind direction | speed knots | gust knots | rain 1hr in | rain 24hr in | rain mn in | humidity % | barometer mb |
| 20260905220045 | 0 | 228 | 2.6 | 6.1 | 0.00 | 0.00 | 0.00 | 1019.5 | |
| 20260905214544 | 0 | 215 | 5.2 | 7.8 | 0.00 | 0.00 | 0.00 | 1019.3 | |
| 20260905213044 | 0 | 229 | 3.5 | 5.2 | 0.00 | 0.00 | 0.00 | 1019.3 | |
| 20260905211550 | 0 | 236 | 2.6 | 4.3 | 0.00 | 0.00 | 0.00 | 1019.1 | |
| 20260905210047 | 0 | 246 | 1.7 | 5.2 | 0.00 | 0.00 | 0.00 | 1018.9 | |
| 20260905204546 | 0 | 229 | 2.6 | 6.1 | 0.00 | 0.00 | 0.00 | 1018.8 | |
| 20260905203043 | 0 | 227 | 3.5 | 5.2 | 0.00 | 0.00 | 0.00 | 1018.7 | |
| 20260905201541 | 0 | 222 | 2.6 | 7.0 | 0.00 | 0.00 | 0.00 | 1018.7 | |
| 20260905200041 | 0 | 219 | 4.3 | 7.8 | 0.00 | 0.00 | 0.00 | 1018.8 | |
| 20260905194535 | 0 | 225 | 0.0 | 5.2 | 0.00 | 0.00 | 0.00 | 1018.8 | |
| 20260905193030 | 0 | 238 | 2.6 | 7.0 | 0.00 | 0.00 | 0.00 | 1018.6 | |
| 20260905191600 | 0 | 245 | 2.6 | 5.2 | 0.00 | 0.00 | 0.00 | 1018.4 | |
| 20260905190053 | 0 | 256 | 3.5 | 7.0 | 0.00 | 0.00 | 0.00 | 1018.0 | |
| 20260905184608 | 0 | 254 | 2.6 | 5.2 | 0.00 | 0.00 | 0.00 | 1017.9 | |
| 20260905183048 | 0 | 53 | 3.5 | 7.0 | 0.00 | 0.00 | 0.00 | 1017.7 | |
| 20260905181546 | 0 | 296 | 2.6 | 7.0 | 0.00 | 0.00 | 0.00 | 1017.4 | |
| 20260905180035 | 0 | 347 | 3.5 | 5.2 | 0.00 | 0.00 | 0.00 | 1017.3 | |
| 20260905174529 | 0 | 21 | 3.5 | 8.7 | 0.00 | 0.00 | 0.00 | 1017.2 | |
| 20260905173020 | 0 | 354 | 2.6 | 8.7 | 0.00 | 0.00 | 0.00 | 1017.2 | |
| 20260905171516 | 0 | 20 | 6.1 | 9.6 | 0.00 | 0.00 | 0.00 | 1017.2 | |
| 20260905170012 | 0 | 345 | 6.1 | 10.4 | 0.00 | 0.00 | 0.00 | 1017.4 | |
| 20260905164507 | 0 | 17 | 0.0 | 9.6 | 0.00 | 0.00 | 0.00 | 1017.5 | |
| 20260905163004 | 0 | 329 | 2.6 | 8.7 | 0.00 | 0.00 | 0.00 | 1017.5 | |
| 20260905161558 | 0 | 36 | 7.8 | 12.2 | 0.00 | 0.00 | 0.00 | 1017.4 | |
| 20260905160054 | 0 | 41 | 7.0 | 11.3 | 0.00 | 0.00 | 0.00 | 1017.5 | |
| 20260905154610 | 0 | 210 | 0.9 | 9.6 | 0.00 | 0.00 | 0.00 | 1017.8 | |
| 20260905153045 | 0 | 304 | 4.3 | 7.8 | 0.00 | 0.00 | 0.00 | 1017.6 | |
| 20260905151540 | 0 | 313 | 2.6 | 10.4 | 0.00 | 0.00 | 0.00 | 1017.5 | |
| 20260905150038 | 0 | 6 | 6.1 | 9.6 | 0.00 | 0.00 | 0.00 | 1017.4 | |
| 20260905144539 | 0 | 56 | 4.3 | 10.4 | 0.00 | 0.00 | 0.00 | 1017.6 | |
| 20260905143037 | 0 | 27 | 4.3 | 8.7 | 0.00 | 0.00 | 0.00 | 1017.4 | |
| 20260905141536 | 0 | 23 | 7.8 | 11.3 | 0.00 | 0.00 | 0.00 | 1017.4 | |
| 20260905140039 | 0 | 46 | 5.2 | 9.6 | 0.00 | 0.00 | 0.00 | 1017.5 | |
| 20260905134535 | 0 | 27 | 3.5 | 9.6 | 0.00 | 0.00 | 0.00 | 1017.4 | |
| 20260905133043 | 0 | 17 | 2.6 | 7.0 | 0.00 | 0.00 | 0.00 | 1017.6 | |
| 20260905131634 | 0 | 352 | 3.5 | 9.6 | 0.00 | 0.00 | 0.00 | 1017.7 | |
| 20260905130035 | 0 | 58 | 5.2 | 10.4 | 0.00 | 0.00 | 0.00 | 1018.0 | |
| 20260905124535 | 0 | 10 | 8.7 | 11.3 | 0.00 | 0.00 | 0.00 | 1018.3 | |
| 20260905123031 | 0 | 36 | 5.2 | 9.6 | 0.00 | 0.00 | 0.00 | 1018.4 | |
| 20260905121531 | 0 | 22 | 3.5 | 8.7 | 0.00 | 0.00 | 0.00 | 1018.6 | |
| 20260905120028 | 0 | 354 | 7.8 | 12.2 | 0.00 | 0.00 | 0.00 | 1018.6 | |
| 20260905114526 | 0 | 36 | 1.7 | 5.2 | 0.00 | 0.00 | 0.00 | 1018.7 | |
| 20260905113021 | 0 | 55 | 0.0 | 6.1 | 0.00 | 0.00 | 0.00 | 1018.7 | |
| 20260905111528 | 0 | 10 | 2.6 | 7.0 | 0.00 | 0.00 | 0.00 | 1018.8 | |
| 20260905110029 | 0 | 358 | 0.0 | 4.3 | 0.00 | 0.00 | 0.00 | 1018.8 | |
| 20260905104508 | 0 | 355 | 0.0 | 3.5 | 0.00 | 0.00 | 0.00 | 1018.8 | |
| 20260905103009 | 0 | 353 | 0.0 | 2.6 | 0.00 | 0.00 | 0.00 | 1018.6 | |
| 20260905101605 | 0 | 353 | 3.5 | 5.2 | 0.00 | 0.00 | 0.00 | 1018.7 | |
| 20260905100058 | 0 | 225 | 0.0 | 0.0 | 0.00 | 0.00 | 0.00 | 1018.7 | |
| 20260905094550 | 0 | 225 | 0.0 | 0.0 | 0.00 | 0.00 | 0.00 | 1018.6 | |
| 20260905093046 | 0 | 225 | 0.9 | 3.5 | 0.00 | 0.00 | 0.00 | 1018.5 | |
| 20260905091541 | 0 | 225 | 0.0 | 0.0 | 0.00 | 0.00 | 0.00 | 1018.7 | |
| 20260905090039 | 0 | 225 | 0.0 | 1.7 | 0.00 | 0.00 | 0.00 | 1018.7 | |
| 20260905084538 | 0 | 225 | 0.0 | 0.0 | 0.00 | 0.00 | 0.00 | 1018.9 | |
| 20260905083032 | 0 | 225 | 0.0 | 0.9 | 0.00 | 0.00 | 0.00 | 1019.0 | |
| 20260905081524 | 0 | 225 | 0.0 | 0.9 | 0.00 | 0.00 | 0.00 | 1018.7 | |
| 20260905080031 | 0 | 226 | 0.0 | 0.9 | 0.00 | 0.00 | 0.00 | 1018.3 | |
| 20260905074519 | 0 | 226 | 0.0 | 0.9 | 0.00 | 0.00 | 0.00 | 1018.2 | |
| 20260905073010 | 0 | 226 | 0.0 | 0.9 | 0.00 | 0.00 | 0.00 | 1017.8 | |
| 20260905071511 | 0 | 226 | 0.0 | 0.9 | 0.00 | 0.00 | 0.00 | 1017.6 | |
| 20260905070003 | 0 | 226 | 0.0 | 0.9 | 0.00 | 0.00 | 0.00 | 1017.3 | |
| 20260905064604 | 0 | 226 | 0.0 | 0.9 | 0.00 | 0.00 | 0.00 | 1017.5 | |
| 20260905063055 | 0 | 226 | 0.0 | 0.9 | 0.00 | 0.00 | 0.00 | 1017.4 | |
| 20260905061556 | 0 | 226 | 0.0 | 0.0 | 0.00 | 0.00 | 0.00 | 1017.5 | |
| 20260905060044 | 0 | 226 | 0.0 | 0.0 | 0.00 | 0.00 | 0.00 | 1017.5 | |
| 20260905054540 | 0 | 226 | 0.0 | 0.0 | 0.00 | 0.00 | 0.00 | 1017.5 | |
| 20260905053033 | 0 | 226 | 0.0 | 0.0 | 0.00 | 0.00 | 0.00 | 1017.4 | |
| 20260905051540 | 0 | 226 | 0.0 | 0.0 | 0.00 | 0.00 | 0.00 | 1017.5 | |
| 20260905050026 | 0 | 226 | 0.0 | 1.7 | 0.00 | 0.00 | 0.00 | 1017.4 | |
| 20260905044522 | 0 | 226 | 0.0 | 0.0 | 0.00 | 0.00 | 0.00 | 1017.6 | |
| 20260905043017 | 0 | 226 | 0.0 | 0.9 | 0.00 | 0.00 | 0.00 | 1017.5 | |
| 20260905041513 | 0 | 226 | 0.0 | 0.0 | 0.00 | 0.00 | 0.00 | 1017.4 | |
| 20260905040008 | 0 | 226 | 0.0 | 1.7 | 0.00 | 0.00 | 0.00 | 1017.4 | |
| 20260905034503 | 0 | 226 | 0.0 | 0.0 | 0.00 | 0.00 | 0.00 | 1017.5 | |
| 20260905033117 | 0 | 226 | 0.0 | 0.0 | 0.00 | 0.00 | 0.00 | 1017.5 | |
| 20260905031611 | 0 | 226 | 0.0 | 0.0 | 0.00 | 0.00 | 0.00 | 1017.8 | |
| 20260905030058 | 0 | 226 | 0.0 | 0.0 | 0.00 | 0.00 | 0.00 | 1018.1 | |
| 20260905024547 | 0 | 226 | 0.0 | 0.0 | 0.00 | 0.00 | 0.00 | 1018.0 | |
| 20260905023053 | 0 | 226 | 0.0 | 0.0 | 0.00 | 0.00 | 0.00 | 1017.9 | |
| 20260905021538 | 0 | 226 | 0.0 | 0.0 | 0.00 | 0.00 | 0.00 | 1018.2 | |
| 20260905020037 | 0 | 226 | 0.0 | 0.0 | 0.00 | 0.00 | 0.00 | 1018.2 | |
| 20260905014530 | 0 | 226 | 0.0 | 0.0 | 0.00 | 0.00 | 0.00 | 1018.2 | |
| 20260905013025 | 0 | 226 | 0.0 | 0.0 | 0.00 | 0.00 | 0.00 | 1018.4 | |
| 20260905011521 | 0 | 226 | 0.0 | 0.0 | 0.00 | 0.00 | 0.00 | 1018.5 | |
| 20260905010016 | 0 | 226 | 0.0 | 0.0 | 0.00 | 0.00 | 0.00 | 1018.9 | |
| 20260905004512 | 0 | 226 | 0.0 | 2.6 | 0.00 | 0.00 | 0.00 | 1019.2 | |
| 20260905003007 | 0 | 226 | 0.0 | 3.5 | 0.00 | 0.00 | 0.00 | 1019.2 | |
| 20260905001503 | 0 | 226 | 0.0 | 0.0 | 0.00 | 0.00 | 0.00 | 1019.3 | |
| 20260905000121 | 0 | 226 | 0.0 | 0.9 | 0.00 | 0.00 | 0.00 | 1019.1 | |
| 20260904234554 | 0 | 226 | 0.0 | 0.0 | 0.00 | 0.00 | 0.00 | 1019.1 | |
| 20260904233051 | 0 | 226 | 0.0 | 0.0 | 0.00 | 0.00 | 0.00 | 1019.3 | |
| 20260904231545 | 0 | 226 | 1.7 | 4.3 | 0.00 | 0.00 | 0.00 | 1019.2 | |
| 20260904224540 | 0 | 223 | 1.7 | 4.3 | 0.00 | 0.00 | 0.00 | 1019.4 | |
| 20260904223043 | 0 | 221 | 1.7 | 6.1 | 0.00 | 0.00 | 0.00 | 1019.5 | |
| 20260904221544 | 0 | 235 | 4.3 | 8.7 | 0.00 | 0.00 | 0.00 | 1019.6 |